| time (UTC) | temp F | wind direction | speed MPH | gust MPH | rain 1hr in | rain 24hr in | rain mn in | humidity % | barometer mb |
| 20260903040039 | 58 | 240 | 0.0 | 0.0 | 0.00 | 0.00 | 0.00 | 57 | 1001.7 |
| 20260903034538 | 58 | 213 | 0.0 | 0.0 | 0.00 | 0.00 | 0.00 | 59 | 1001.4 |
| 20260903033043 | 58 | 175 | 0.0 | 0.0 | 0.00 | 0.00 | 0.00 | 56 | 1001.1 |
| 20260903031539 | 60 | 194 | 0.0 | 0.0 | 0.00 | 0.00 | 0.00 | 53 | 1001.1 |
| 20260903024537 | 65 | 194 | 0.0 | 0.0 | 0.00 | 0.00 | 0.00 | 38 | 1000.8 |
| 20260903023036 | 66 | 194 | 0.0 | 0.0 | 0.00 | 0.00 | 0.00 | 34 | 1000.6 |
| 20260903021536 | 68 | 203 | 0.0 | 0.0 | 0.00 | 0.00 | 0.00 | 34 | 1000.4 |
| 20260903020035 | 68 | 206 | 0.0 | 1.0 | 0.00 | 0.00 | 0.00 | 32 | 1000.4 |
| 20260903014534 | 70 | 223 | 0.0 | 0.0 | 0.00 | 0.00 | 0.00 | 31 | 1000.2 |
| 20260903013041 | 72 | 220 | 0.0 | 2.0 | 0.00 | 0.00 | 0.00 | 30 | 1000.2 |
| 20260903011533 | 73 | 195 | 0.0 | 0.0 | 0.00 | 0.00 | 0.00 | 28 | 1000.1 |
| 20260903010036 | 74 | 142 | 0.0 | 0.0 | 0.00 | 0.00 | 0.00 | 29 | 1000.2 |
| 20260903004531 | 73 | 294 | 0.0 | 2.0 | 0.00 | 0.00 | 0.00 | 27 | 1000.3 |
| 20260903003037 | 73 | 323 | 0.0 | 1.0 | 0.00 | 0.00 | 0.00 | 30 | 1000.3 |
| 20260903001531 | 74 | 310 | 0.0 | 0.0 | 0.00 | 0.00 | 0.00 | 28 | 1000.3 |
| 20260903000030 | 74 | 279 | 0.0 | 1.0 | 0.00 | 0.00 | 0.00 | 28 | 1000.2 |
| 20260902234529 | 75 | 323 | 0.0 | 3.0 | 0.00 | 0.00 | 0.00 | 27 | 1000.2 |
| 20260902233029 | 75 | 285 | 0.0 | 1.0 | 0.00 | 0.00 | 0.00 | 28 | 1000.3 |
| 20260902231531 | 75 | 350 | 0.0 | 0.0 | 0.00 | 0.00 | 0.00 | 26 | 1000.0 |
| 20260902230026 | 76 | 161 | 0.0 | 0.0 | 0.00 | 0.00 | 0.00 | 26 | 1000.2 |
| 20260902224542 | 77 | 210 | 0.0 | 0.0 | 0.00 | 0.00 | 0.00 | 24 | 1000.3 |
| 20260902223025 | 77 | 232 | 0.0 | 1.0 | 0.00 | 0.00 | 0.00 | 26 | 1000.3 |
| 20260902221533 | 75 | 212 | 0.0 | 2.0 | 0.00 | 0.00 | 0.00 | 26 | 1000.5 |
| 20260902220044 | 76 | 332 | 0.0 | 2.0 | 0.00 | 0.00 | 0.00 | 26 | 1000.7 |
| 20260902214521 | 77 | 255 | 0.0 | 5.0 | 0.00 | 0.00 | 0.00 | 26 | 1000.8 |
| 20260902213020 | 77 | 287 | 1.0 | 13.0 | 0.00 | 0.00 | 0.00 | 23 | 1001.0 |
| 20260902211525 | 77 | 259 | 2.0 | 10.0 | 0.00 | 0.00 | 0.00 | 25 | 1000.8 |
| 20260902210022 | 76 | 263 | 0.0 | 6.0 | 0.00 | 0.00 | 0.00 | 27 | 1000.9 |
| 20260902204523 | 75 | 242 | 0.0 | 2.0 | 0.00 | 0.00 | 0.00 | 27 | 1000.8 |
| 20260902203017 | 76 | 293 | 2.0 | 11.0 | 0.00 | 0.00 | 0.00 | 23 | 1001.0 |
| 20260902201534 | 77 | 204 | 0.0 | 5.0 | 0.00 | 0.00 | 0.00 | 24 | 1000.9 |
| 20260902200016 | 78 | 217 | 0.0 | 5.0 | 0.00 | 0.00 | 0.00 | 21 | 1000.9 |
| 20260902194527 | 79 | 238 | 0.0 | 4.0 | 0.00 | 0.00 | 0.00 | 24 | 1001.0 |
| 20260902193030 | 77 | 229 | 0.0 | 4.0 | 0.00 | 0.00 | 0.00 | 25 | 1001.1 |
| 20260902191509 | 78 | 195 | 1.0 | 12.0 | 0.00 | 0.00 | 0.00 | 25 | 1001.3 |
| 20260902190008 | 78 | 200 | 0.0 | 11.0 | 0.00 | 0.00 | 0.00 | 23 | 1001.5 |
| 20260902184503 | 76 | 289 | 0.0 | 8.0 | 0.00 | 0.00 | 0.00 | 25 | 1001.9 |
| 20260902183124 | 77 | 303 | 0.0 | 14.0 | 0.00 | 0.00 | 0.00 | 24 | 1002.0 |
| 20260902181609 | 77 | 244 | 0.0 | 8.0 | 0.00 | 0.00 | 0.00 | 25 | 1002.4 |
| 20260902180054 | 76 | 225 | 0.0 | 2.0 | 0.00 | 0.00 | 0.00 | 24 | 1002.6 |
| 20260902174549 | 76 | 238 | 0.0 | 2.0 | 0.00 | 0.00 | 0.00 | 26 | 1002.7 |
| 20260902173047 | 76 | 240 | 0.0 | 2.0 | 0.00 | 0.00 | 0.00 | 25 | 1003.0 |
| 20260902171553 | 74 | 317 | 0.0 | 4.0 | 0.00 | 0.00 | 0.00 | 27 | 1003.1 |
| 20260902170044 | 75 | 287 | 0.0 | 5.0 | 0.00 | 0.00 | 0.00 | 28 | 1003.1 |
| 20260902164543 | 76 | 317 | 0.0 | 4.0 | 0.00 | 0.00 | 0.00 | 29 | 1003.0 |
| 20260902163044 | 75 | 225 | 0.0 | 4.0 | 0.00 | 0.00 | 0.00 | 30 | 1003.1 |
| 20260902161536 | 73 | 224 | 0.0 | 0.0 | 0.00 | 0.00 | 0.00 | 32 | 1003.2 |
| 20260902160033 | 73 | 312 | 0.0 | 1.0 | 0.00 | 0.00 | 0.00 | 33 | 1003.3 |
| 20260902154531 | 74 | 218 | 0.0 | 1.0 | 0.00 | 0.00 | 0.00 | 34 | 1003.5 |
| 20260902153042 | 72 | 213 | 0.0 | 1.0 | 0.00 | 0.00 | 0.00 | 35 | 1003.5 |
| 20260902151519 | 70 | 163 | 0.0 | 0.0 | 0.00 | 0.00 | 0.00 | 41 | 1003.8 |
| 20260902150015 | 68 | 195 | 0.0 | 0.0 | 0.00 | 0.00 | 0.00 | 43 | 1003.9 |
| 20260902144510 | 66 | 207 | 0.0 | 0.0 | 0.00 | 0.00 | 0.00 | 48 | 1004.2 |
| 20260902143006 | 64 | 209 | 0.0 | 0.0 | 0.00 | 0.00 | 0.00 | 52 | 1004.4 |
| 20260902141504 | 60 | 198 | 0.0 | 0.0 | 0.00 | 0.00 | 0.00 | 58 | 1004.6 |
| 20260902140105 | 58 | 197 | 0.0 | 0.0 | 0.00 | 0.00 | 0.00 | 62 | 1004.8 |
| 20260902134557 | 56 | 136 | 0.0 | 0.0 | 0.00 | 0.00 | 0.00 | 68 | 1004.9 |
| 20260902133056 | 57 | 123 | 0.0 | 0.0 | 0.00 | 0.00 | 0.00 | 65 | 1004.6 |
| 20260902131556 | 57 | 123 | 0.0 | 0.0 | 0.00 | 0.00 | 0.00 | 62 | 1004.8 |
| 20260902130051 | 59 | 123 | 0.0 | 0.0 | 0.00 | 0.00 | 0.00 | 61 | 1004.6 |
| 20260902124550 | 60 | 152 | 0.0 | 0.0 | 0.00 | 0.00 | 0.00 | 55 | 1004.3 |
| 20260902123056 | 60 | 153 | 0.0 | 0.0 | 0.00 | 0.00 | 0.00 | 58 | 1004.3 |
| 20260902121548 | 59 | 153 | 0.0 | 0.0 | 0.00 | 0.00 | 0.00 | 58 | 1004.3 |
| 20260902120048 | 58 | 118 | 0.0 | 0.0 | 0.00 | 0.00 | 0.00 | 59 | 1004.1 |
| 20260902114546 | 58 | 194 | 0.0 | 0.0 | 0.00 | 0.00 | 0.00 | 61 | 1004.4 |
| 20260902113043 | 57 | 170 | 0.0 | 0.0 | 0.00 | 0.00 | 0.00 | 61 | 1004.5 |
| 20260902111542 | 56 | 152 | 0.0 | 0.0 | 0.00 | 0.00 | 0.00 | 65 | 1004.8 |
| 20260902110045 | 56 | 213 | 0.0 | 0.0 | 0.00 | 0.00 | 0.00 | 64 | 1004.9 |
| 20260902104541 | 56 | 200 | 0.0 | 1.0 | 0.00 | 0.00 | 0.00 | 62 | 1004.8 |
| 20260902103040 | 56 | 204 | 0.0 | 3.0 | 0.00 | 0.00 | 0.00 | 64 | 1004.7 |
| 20260902101538 | 56 | 208 | 0.0 | 6.0 | 0.00 | 0.00 | 0.00 | 64 | 1004.7 |
| 20260902100038 | 55 | 209 | 0.0 | 0.0 | 0.00 | 0.00 | 0.00 | 66 | 1004.9 |
| 20260902094536 | 54 | 200 | 0.0 | 0.0 | 0.00 | 0.00 | 0.00 | 66 | 1005.0 |
| 20260902093038 | 54 | 211 | 0.0 | 0.0 | 0.00 | 0.00 | 0.00 | 66 | 1005.0 |
| 20260902091535 | 54 | 173 | 0.0 | 0.0 | 0.00 | 0.00 | 0.00 | 67 | 1005.1 |
| 20260902090036 | 54 | 154 | 0.0 | 0.0 | 0.00 | 0.00 | 0.00 | 67 | 1005.3 |
| 20260902084531 | 53 | 244 | 0.0 | 0.0 | 0.00 | 0.00 | 0.00 | 67 | 1005.4 |
| 20260902083028 | 54 | 192 | 0.0 | 0.0 | 0.00 | 0.00 | 0.00 | 65 | 1005.3 |
| 20260902081526 | 55 | 190 | 0.0 | 0.0 | 0.00 | 0.00 | 0.00 | 65 | 1005.5 |
| 20260902080024 | 56 | 219 | 0.0 | 0.0 | 0.00 | 0.00 | 0.00 | 65 | 1005.4 |
| 20260902074525 | 57 | 211 | 0.0 | 2.0 | 0.00 | 0.00 | 0.00 | 64 | 1005.5 |
| 20260902073018 | 58 | 191 | 0.0 | 4.0 | 0.00 | 0.00 | 0.00 | 61 | 1005.5 |
| 20260902071515 | 58 | 220 | 0.0 | 4.0 | 0.00 | 0.00 | 0.00 | 59 | 1005.6 |
| 20260902070017 | 59 | 228 | 0.0 | 1.0 | 0.00 | 0.00 | 0.00 | 56 | 1005.7 |
| 20260902064506 | 61 | 200 | 0.0 | 0.0 | 0.00 | 0.00 | 0.00 | 51 | 1005.9 |
| 20260902063005 | 63 | 349 | 0.0 | 0.0 | 0.00 | 0.00 | 0.00 | 49 | 1006.1 |
| 20260902061514 | 66 | 285 | 0.0 | 17.0 | 0.00 | 0.00 | 0.00 | 43 | 1006.2 |
| 20260902054612 | 60 | 234 | 0.0 | 0.0 | 0.00 | 0.00 | 0.00 | 55 | 1006.7 |
| 20260902053105 | 59 | 109 | 0.0 | 0.0 | 0.00 | 0.00 | 0.00 | 54 | 1006.0 |
| 20260902051559 | 60 | 103 | 0.0 | 0.0 | 0.00 | 0.00 | 0.00 | 53 | 1005.9 |
| 20260902050058 | 61 | 188 | 0.0 | 0.0 | 0.00 | 0.00 | 0.00 | 53 | 1005.8 |
| 20260902044556 | 59 | 205 | 0.0 | 0.0 | 0.00 | 0.00 | 0.00 | 56 | 1005.8 |
| 20260902043057 | 59 | 215 | 0.0 | 0.0 | 0.00 | 0.00 | 0.00 | 60 | 1005.8 |
| 20260902041555 | 59 | 208 | 0.0 | 1.0 | 0.00 | 0.00 | 0.00 | 59 | 1005.9 |